Weather in Tomtor

Russia / Sakha (Yakutia) Republic     67˚09′13″N   134˚41′39″E
temp.,
°C
wind,
m/s
gust,
m/s
humid.,
%
clouds,
%
prec.,
mm/h
press.,
hPa
HPBL,
m
17 january, sun
sun1701:00−42˚wnw119886 0.0 102918
04:00−42˚w009891 0.0 103018
07:00−43˚w019886 0.0 103118
10:00−44˚w0010078 0.0 103118
13:00−44˚wnw009949 0.0 103118
16:00−44˚sse0010067 0.0 103218
19:00−45˚s0010076 0.0 103218
22:00−45˚sw0110070 0.0 103318
18 january, mon
mon1801:00−46˚sw1110054 0.0 103318
04:00−46˚s1110057 0.0 103418
07:00−46˚sse1110054 0.0 103418
10:00−47˚ssw0010053 0.0 103418
13:00−46˚ssw0010052 0.0 103418
16:00−47˚w0010052 0.0 103318
19:00−47˚wsw1110049 0.0 103318
22:00−46˚wsw1110061 0.0 103218
19 january, tue
tue1901:00−45˚wsw119792 0.0 103218
04:00−42˚sw009496 0.0 103144
07:00−42˚s1198100 0.0 103060
10:00−41˚s1198100 0.2 103078
13:00−40˚se1196100 0.1 102992
16:00−42˚sse1198100 0.1 102918
19:00−42˚s0197100 0.0 102818
22:00−41˚s1196100 0.0 102718
20 january, wed
wed2001:00−42˚se119898 0.0 102718
04:00−42˚se119898 0.0 102618
07:00−43˚se119899 0.0 102618
10:00−43˚se119899 0.0 102518
13:00−42˚se119699 0.0 102518
16:00−42˚ese119699 0.0 102618
19:00−41˚ese0194100 0.0 102618
22:00−41˚se0194100 0.0 102618
21 january, thu
thu2101:00−42˚ese0196100 0.0 102718
04:00−42˚ese0095100 0.0 102718
07:00−42˚sse0094100 0.0 102818
10:00−43˚ssw009691 0.0 102918
13:00−43˚s009470 0.0 102918
16:00−43˚se119678 0.0 103018
19:00−44˚sse019891 0.0 103118
22:00−45˚se1110077 0.0 103118